Location: Winthrop
(48.4780°N, 120.1850°W)
Time: 23:01:41
(UTC-07:00)

S-56A Canister/Altair - Pass Details

Date: 03 June 2023
Orbit: 640 x 2489 km, 38.9° (Epoch: 29 September)

Event Time Altitude Azimuth Distance (km) Brightness Sun altitude
Rises 00:44:40 0° 260° (W) 5,926 12.0 -19.2°
Reaches altitude 10° 00:48:27 10° 257° (WSW) 5,037 11.6 -19.2°
Maximum altitude 01:02:53 58° 185° (S) 2,762 9.9 -19.2°
Drops below altitude 10° 01:16:02 10° 111° (ESE) 4,628 11.3 -19.1°
Sets 01:19:21 0° 108° (ESE) 5,434 11.7 -19.1°
